[[[{"header":{"parameterUnit":"kt","parameterCategory":2,"dx":1,"dy":1,"la1":30.253999710083008,"la2":30.299108505249023,"lo1":-89.0895004272461,"lo2":-89.04439544677734,"nx":28,"ny":28,"refTime":"2022-10-03T21:00:00:Z","depth":0,"parameterNumber":1,"parameterNumberName":"U-component_of_WINDS"},"data":[-10.8868,-10.9178,-10.9192,-10.9552,-10.9626,-10.9873,-10.9965,-11.0087,-11.0187,-11.0483,-11.0656,-11.0701,-11.0805,-11.1013,-11.12,-11.1215,-11.1291,-11.1391,-11.1391,-11.0933,-11.087,-11.081,-11.0734,-11.141,-11.1411,-11.186,-11.1864,-11.1867,-10.8532,-10.8608,-10.8804,-10.9001,-10.9168,-10.908,-10.923,-10.9374,-10.9598,-10.9724,-10.9894,-11.0156,-11.0364,-11.0435,-11.0636,-11.078,-11.0747,-11.0833,-11.0818,-11.0835,-11.0348,-11.0269,-11.0856,-11.0856,-11.0855,-11.0855,-11.0855,-11.0855,-10.7922,-10.8108,-10.8234,-10.8445,-10.8549,-10.8681,-10.886,-10.891,-10.91,-10.9313,-10.9292,-10.9544,-10.9671,-10.992,-11.0006,-11.0202,-11.0109,-11.0205,-11.0228,-11.0251,-11.0273,-10.9614,-11.0238,-11.0237,-11.0235,-11.0234,-11.0233,0,-10.7476,-10.7475,-10.7662,-10.7854,-10.8009,-10.8159,-10.8298,-10.841,-10.8407,-10.8565,-10.8793,-10.8926,-10.919,-10.9404,-10.9596,-10.9665,-10.9584,-10.958,-10.9645,-10.9654,-10.9639,-10.9644,-10.8844,-10.9559,-10.9553,-10.9549,-10.9546,-10.9544,-10.6855,-10.7072,-10.721,-10.734,-10.7418,-10.763,-10.7757,-10.7739,-10.7874,-10.8042,-10.8207,-10.8423,-10.8593,-10.8957,-10.901,-10.9206,-10.9167,-10.9438,-10.9196,-10.9198,-10.9164,-10.9149,-10.9168,-10.9483,-10.9491,-10.9497,-10.9502,0,-10.6504,-10.6522,-10.6861,-10.6975,-10.7011,-10.7239,-10.7335,-10.7521,-10.7547,-10.7806,-10.7865,-10.7906,-10.813,-10.8139,-10.8397,-10.8394,-10.8767,-10.8728,-10.8722,-10.8712,-10.8951,-10.8927,-10.9737,-10.984,-10.9147,-10.9154,-10.916,0,-10.5977,-10.6263,-10.6272,-10.6468,-10.6785,-10.6756,-10.707,-10.7123,-10.723,-10.7433,-10.7344,-10.7536,-10.7517,-10.7712,-10.7708,-10.8015,-10.8065,-10.8079,-10.8073,-10.8083,-10.8081,-10.8149,-10.8113,-10.8059,-10.8055,-10.8051,-10.8048,0,-10.5419,-10.576,-10.6079,-10.6158,-10.6307,-10.6458,-10.6527,-10.6645,-10.6771,-10.6934,-10.7014,-10.7209,-10.7313,-10.7465,-10.7457,-10.7291,-10.7834,-10.7605,-10.7847,-10.7847,-10.7961,-10.7953,-10.8675,-10.8043,-10.8042,-10.804,-10.8039,0,-10.4992,-10.5159,-10.5621,-10.574,-10.583,-10.6042,-10.6227,-10.6411,-10.6543,-10.6553,-10.6682,-10.662,-10.6892,-10.6663,-10.7036,-10.6821,-10.693,-10.6969,-10.6987,-10.7005,-10.6747,-10.7145,-10.7838,-10.7907,-10.7031,-10.7023,-10.7015,0,-10.4346,-10.4816,-10.4792,-10.5233,-10.5449,-10.5329,-10.5564,-10.5683,-10.5716,-10.5904,-10.594,-10.6155,-10.5987,-10.6054,-10.6239,-10.6283,-10.6563,-10.6247,-10.6514,-10.6524,-10.6476,-10.7115,-10.7211,-10.7686,-10.6908,-10.6919,-10.6927,0,-10.3844,-10.4021,-10.4101,-10.4188,-10.434,-10.4522,-10.4793,-10.4999,-10.5124,-10.527,-10.5492,-10.5799,-10.5681,-10.5795,-10.5765,-10.5956,-10.6373,-10.5804,-10.5807,-10.5902,-10.6856,-10.6947,-10.7027,-10.631,-10.6323,-10.6334,-10.6842,0,-10.3187,-10.3424,-10.3643,-10.384,-10.3982,-10.4258,-10.4262,-10.441,-10.4365,-10.4391,-10.4723,-10.4822,-10.5032,-10.5126,-10.5085,-10.5522,-10.5448,-10.5321,-10.5093,-10.5515,-10.5682,-10.5751,-10.4844,-10.4837,-10.4832,-10.4827,0,0,-10.256,-10.2898,-10.2862,-10.3121,-10.3237,-10.3106,-10.34,-10.3499,-10.3701,-10.3783,-10.3658,-10.4101,-10.4188,-10.4588,-10.472,-10.4807,-10.4884,-10.4736,-10.5315,-10.537,-10.542,-10.5599,-10.5671,-10.4817,-10.4815,-10.4813,-10.4811,0,-10.2317,-10.2409,-10.2701,-10.2801,-10.2946,-10.2959,-10.303,-10.315,-10.318,-10.3505,-10.339,-10.3589,-10.3946,-10.405,-10.4149,-10.469,-10.459,-10.4755,-10.5042,-10.5259,-10.5321,-10.5376,-10.5564,-10.5633,-10.4798,-10.4798,-10.4799,0,-10.182,-10.1908,-10.2049,-10.2308,-10.2402,-10.2629,-10.2392,-10.2643,-10.281,-10.2651,-10.2974,-10.303,-10.3171,-10.3551,-10.3722,-10.3611,-10.4321,-10.41,-10.4135,-10.4152,-10.4362,-10.4437,-10.4503,-10.3628,-10.3624,-10.362,0,0,-10.1609,-10.1829,-10.1915,-10.2256,-10.2323,-10.2346,-10.2467,-10.2432,-10.2561,-10.2613,-10.2681,-10.281,-10.3016,-10.3152,-10.3346,-10.3764,-10.3788,-10.3955,-10.4011,-10.4056,-10.4097,-10.4319,-10.4393,-10.3605,-10.3604,-10.3604,0,0,-10.1508,-10.162,-10.155,-10.1946,-10.2073,-10.2179,-10.2387,-10.2304,-10.2478,-10.2446,-10.24,-10.2432,-10.2788,-10.2847,-10.2639,-10.3263,-10.3039,-10.3089,-10.321,-10.328,-10.3335,-10.331,-10.2407,0,0,0,0,0,-10.1259,-10.1605,-10.1542,-10.1608,-10.1934,-10.2215,-10.2256,-10.2225,-10.2066,-10.2232,-10.2275,-10.216,-10.2725,-10.254,-10.2607,-10.2837,-10.3405,-10.344,-10.3474,-10.3729,-10.3802,-10.3864,0,0,0,0,0,0,-10.1285,-10.1367,-10.1532,-10.1653,-10.1726,-10.2202,-10.1925,-10.1926,-10.2047,-10.2021,-10.2156,-10.2164,-10.2143,-10.2503,-10.2564,-10.2783,-10.2386,-10.3419,-10.3449,-10.3476,-10.3754,-10.3814,-10.3865,0,0,0,0,0,-10.1305,-10.1371,-10.1901,-10.1648,-10.1711,-10.1753,-10.1911,-10.191,-10.2003,-10.207,-10.2075,-10.1969,-10.2151,-10.22,-10.2539,-10.2756,-10.2344,-10.2366,-10.3438,-10.3462,-10.3483,-10.3783,0,0,0,0,0,0,-10.1321,-10.1372,-10.1913,-10.1931,-10.1514,-10.1726,-10.1758,-10.1897,-10.2044,-10.2053,-10.1879,-10.1857,-10.216,-10.2196,-10.2235,-10.2749,-10.2309,-10.2333,-10.2347,-10.3456,-10.3475,-10.3491,0,0,0,0,0,0,-10.1336,-10.1389,-10.1922,-10.1755,-10.1753,-10.1701,-10.173,-10.2014,-10.2048,-10.1844,-10.183,-10.1868,-10.2102,-10.2196,-10.2225,-10.267,-10.2283,-10.2305,-10.232,-10.233,-10.3471,-10.3486,0,0,0,0,0,0,-10.1357,-10.1402,-10.1749,-10.1749,-10.1747,-10.1947,-10.1951,-10.2286,-10.1904,-10.184,-10.1869,-10.1852,-10.2106,-10.2134,-10.222,-10.2653,-10.2666,-10.2283,-10.2299,-10.2309,-10.2316,0,0,0,0,0,0,0,-10.1375,-10.1084,-10.1806,-10.1744,-10.1741,-10.2099,-10.2104,-10.2108,-10.19,-10.1886,-10.1872,-10.1859,-10.2156,-10.218,-10.2205,-10.2639,0,0,-10.2281,-10.2292,0,0,0,0,0,0,0,0,-10.1064,-10.1079,-10.1807,-10.181,-10.1814,-10.2099,-10.2103,-10.2107,-10.1898,-10.1887,-10.1875,-10.1865,-10.2163,-10.2182,-10.2202,0,0,0,0,0,0,0,0,0,0,0,0,0,0,0,-10.1807,-10.181,0,-10.21,-10.2103,-10.2107,-10.1896,-10.1887,-10.1878,-10.1869,-10.2168,-10.2184,-10.2201,0,0,0,0,0,0,0,0,0,0,0,0,0,0,0,0,0,0,0,0,0,0,0,0,0,0,0,0,0,0,0,0,0,0,0,0,0,0,0,0,0,0,0,0,0,0,0,0,0,0,0,0,0,0,0,0,0,0,0,0,0,0,0,0,0,0,0,0,0]}],[{"header":{"parameterUnit":"kt","parameterCategory":2,"dx":1,"dy":1,"la1":30.253999710083008,"la2":30.299108505249023,"lo1":-89.0895004272461,"lo2":-89.04439544677734,"nx":28,"ny":28,"refTime":"2022-10-03T21:00:00:Z","depth":0,"parameterNumber":2,"parameterNumberName":"V-component_of_WINDS"},"data":[2.178,2.1923,2.1902,2.2056,2.2063,2.2163,2.2192,2.2227,2.2249,2.2366,2.2428,2.242,2.2432,2.2501,2.2567,2.2561,2.2591,2.2657,2.2639,2.2362,2.2323,2.2285,2.225,2.2664,2.2664,2.2929,2.2932,2.2934,2.1579,2.1588,2.1663,2.1722,2.1786,2.1709,2.1748,2.1806,2.1898,2.1926,2.1986,2.2086,2.2161,2.215,2.2219,2.2284,2.2251,2.2304,2.2299,2.2302,2.2005,2.1968,2.2329,2.2329,2.2329,2.2329,2.2329,2.2329,2.1209,2.1296,2.1319,2.1399,2.1422,2.1461,2.1539,2.1528,2.1599,2.1669,2.1628,2.1731,2.1753,2.1824,2.1841,2.192,2.1857,2.1907,2.192,2.1934,2.1953,2.1574,2.193,2.1929,2.1928,2.1927,2.1926,0,2.0931,2.0908,2.0978,2.1042,2.1099,2.1146,2.1185,2.1233,2.1172,2.1234,2.1321,2.1368,2.1458,2.1537,2.1595,2.1603,2.1528,2.1517,2.1552,2.1575,2.1587,2.1583,2.11,2.1507,2.1504,2.1501,2.1499,2.1498,2.0557,2.066,2.0672,2.0724,2.074,2.0825,2.087,2.0809,2.086,2.0898,2.0976,2.1054,2.1113,2.1255,2.1238,2.1305,2.127,2.1428,2.1279,2.1296,2.1273,2.1268,2.1278,2.1458,2.1463,2.1467,2.1471,0,2.0348,2.0311,2.0463,2.0464,2.0468,2.0579,2.0578,2.0662,2.064,2.0751,2.0773,2.0739,2.0825,2.0781,2.087,2.0845,2.1026,2.0989,2.1018,2.1009,2.1146,2.1134,2.1599,2.1656,2.1226,2.123,2.1233,0,2.0014,2.0151,2.0088,2.0178,2.0329,2.0263,2.0413,2.0409,2.0427,2.0513,2.0421,2.0505,2.0435,2.0512,2.0475,2.0615,2.0632,2.0621,2.0609,2.063,2.0631,2.0655,2.0636,2.0579,2.0576,2.0574,2.0572,0,1.9692,1.9818,1.9964,1.9986,2.0,2.007,2.0079,2.0098,2.0143,2.0193,2.0221,2.0285,2.0321,2.0371,2.0323,2.0224,2.0493,2.0346,2.0482,2.0483,2.0544,2.0541,2.0963,2.0569,2.0569,2.0568,2.0567,0,1.9415,1.9469,1.9687,1.9695,1.9731,1.9827,1.9885,1.9957,1.9983,1.9966,2.0005,1.9938,2.0056,1.9914,2.0076,1.9961,2.0001,2.0001,2.0009,2.0018,1.986,2.0105,2.0511,2.0552,2.0025,2.0021,2.0017,0,1.9057,1.9266,1.921,1.9418,1.9508,1.9398,1.9503,1.9528,1.9514,1.9587,1.957,1.9654,1.9539,1.9559,1.9645,1.9631,1.9781,1.9609,1.9716,1.9721,1.9714,2.0086,2.0158,2.0427,1.9958,1.9964,1.9969,0,1.8774,1.8789,1.883,1.8853,1.8876,1.8951,1.9071,1.914,1.9192,1.9231,1.933,1.9447,1.9365,1.9399,1.9351,1.9443,1.9677,1.9342,1.9342,1.9405,1.9925,1.9992,2.0038,1.9624,1.9631,1.9637,1.9922,0,1.8368,1.8466,1.8574,1.8627,1.8677,1.8804,1.8757,1.8816,1.8764,1.8745,1.889,1.8899,1.8969,1.9008,1.8958,1.9182,1.9137,1.9049,1.8908,1.9152,1.9245,1.9283,1.8773,1.8769,1.8765,1.8762,0,0,1.8034,1.8174,1.8108,1.8222,1.8261,1.8144,1.8283,1.8307,1.8358,1.8386,1.8307,1.8474,1.8485,1.8666,1.8738,1.8766,1.8802,1.8718,1.9036,1.9067,1.9095,1.9196,1.9236,1.8755,1.8754,1.8753,1.8752,0,1.7875,1.7889,1.8028,1.8049,1.8078,1.8051,1.8084,1.8092,1.8086,1.8227,1.8128,1.8209,1.8344,1.8369,1.8399,1.8695,1.8616,1.872,1.8896,1.9,1.9036,1.9067,1.9173,1.9212,1.8742,1.8743,1.8743,0,1.7589,1.7595,1.7656,1.7737,1.7755,1.785,1.769,1.7796,1.7866,1.7731,1.7873,1.7872,1.79,1.8077,1.8155,1.8085,1.8449,1.8325,1.8348,1.8355,1.8454,1.8497,1.8536,1.8031,1.8029,1.8026,0,0,1.7458,1.7549,1.7534,1.7699,1.7717,1.7678,1.7723,1.7676,1.7704,1.7716,1.7712,1.7742,1.7819,1.7872,1.7942,1.8143,1.8144,1.824,1.8273,1.8301,1.8324,1.843,1.8473,1.8018,1.8018,1.8017,0,0,1.7395,1.7385,1.7328,1.7513,1.7543,1.754,1.7642,1.7571,1.7629,1.7609,1.7534,1.7539,1.7703,1.7706,1.7596,1.7891,1.7752,1.7777,1.7883,1.7925,1.7958,1.7954,1.7433,0,0,0,0,0,1.7208,1.7386,1.7334,1.7358,1.7459,1.7569,1.7581,1.7523,1.7426,1.7508,1.7494,1.7405,1.7631,1.7532,1.7557,1.768,1.7907,1.7926,1.7945,1.8129,1.8173,1.821,0,0,0,0,0,0,1.7217,1.7246,1.7329,1.7335,1.7356,1.7562,1.7384,1.7373,1.7415,1.7397,1.7411,1.7406,1.7358,1.7515,1.7539,1.7657,1.7425,1.7915,1.7931,1.7946,1.8144,1.818,1.8211,0,0,0,0,0,1.7224,1.7247,1.7425,1.7331,1.7351,1.7316,1.7377,1.7367,1.7398,1.7376,1.7368,1.735,1.7363,1.7379,1.7529,1.7648,1.7409,1.7417,1.7925,1.7939,1.795,1.8162,0,0,0,0,0,0,1.7229,1.7238,1.7427,1.7431,1.7259,1.7303,1.7308,1.7361,1.7373,1.7367,1.731,1.7295,1.7369,1.738,1.7392,1.7648,1.7395,1.7404,1.741,1.7935,1.7946,1.7955,0,0,0,0,0,0,1.7225,1.7242,1.7429,1.7342,1.7335,1.7292,1.7296,1.7415,1.7375,1.7306,1.7294,1.7303,1.735,1.7382,1.7391,1.7578,1.7385,1.7393,1.7399,1.7403,1.7944,1.7952,0,0,0,0,0,0,1.7231,1.7246,1.734,1.7335,1.7328,1.7365,1.7395,1.7502,1.73,1.7308,1.728,1.7271,1.7355,1.7362,1.7391,1.7575,1.7578,1.7385,1.7391,1.7395,1.7398,0,0,0,0,0,0,0,1.7236,1.7152,1.7406,1.733,1.7323,1.7465,1.7466,1.7467,1.7298,1.729,1.7282,1.7275,1.7335,1.7345,1.7355,1.7572,0,0,1.7384,1.7388,0,0,0,0,0,0,0,0,1.7144,1.715,1.7406,1.7407,1.7407,1.7465,1.7466,1.7467,1.7297,1.729,1.7284,1.7278,1.7338,1.7346,1.7353,0,0,0,0,0,0,0,0,0,0,0,0,0,0,0,1.7406,1.7407,0,1.7465,1.7466,1.7466,1.7296,1.729,1.7285,1.728,1.734,1.7346,1.7353,0,0,0,0,0,0,0,0,0,0,0,0,0,0,0,0,0,0,0,0,0,0,0,0,0,0,0,0,0,0,0,0,0,0,0,0,0,0,0,0,0,0,0,0,0,0,0,0,0,0,0,0,0,0,0,0,0,0,0,0,0,0,0,0,0,0,0,0,0]}]]]